Wind_Speed
3 4 3 4 4 4 4 3 3 2 2 2 2 2 2 2 2 2 2 2 2 2 2 3 3 3 3 3 3 3 4 4 4 5 5 6 7 8 8 8 8 8 9
4 4 4 3 4 4 4 3 3 2 2 2 2 2 2 2 2 2 2 3 3 3 3 3 3 4 4 4 4 4 4 4 5 5 6 6 6 7 8 8 9 9 9
5 5 5 4 4 4 4 4 4 4 3 3 3 3 3 3 4 4 4 4 5 5 4 4 4 5 4 4 5 5 4 4 5 6 6 7 7 7 7 8 9 9 9
5 5 6 5 5 4 4 4 4 4 4 4 5 5 5 5 5 5 5 6 6 6 6 5 6 5 5 5 5 5 6 6 7 7 8 8 8 7 7 8 9 10 10
6 5 5 6 5 4 5 5 6 5 5 5 5 5 6 6 6 6 7 7 7 7 6 7 7 8 7 7 7 7 7 7 8 8 9 9 9 8 8 9 10 10 11
6 6 6 6 7 6 6 6 6 6 5 6 6 7 7 8 7 8 8 8 8 8 8 8 8 9 8 8 7 8 8 8 9 9 10 10 10 10 10 10 10 11 12
7 7 7 7 7 7 7 7 7 7 7 7 7 8 8 9 9 10 10 9 9 9 10 9 9 10 9 9 9 9 9 9 9 10 10 11 11 11 11 12 12 12 13
9 9 9 9 8 8 7 8 8 8 8 9 9 9 9 10 11 11 11 10 10 10 11 11 11 11 11 11 10 11 11 11 11 11 11 11 12 12 12 12 13 14 14
10 9 10 10 9 8 8 9 9 9 9 9 9 9 9 10 11 11 11 11 10 11 11 11 12 12 12 11 12 11 11 12 13 13 13 13 13 13 13 13 14 15 16
10 10 11 11 10 10 10 10 9 10 10 10 10 10 10 10 11 11 12 11 11 11 11 11 12 13 12 13 13 14 14 12 13 13 13 14 14 14 14 14 15 15 16
11 12 12 12 11 11 11 11 10 11 12 12 12 11 11 10 11 11 11 11 11 11 12 12 13 13 13 13 14 14 14 13 14 14 14 14 15 15 15 15 16 16 16
11 12 12 12 12 11 12 12 12 12 12 12 12 12 11 11 11 12 11 11 12 12 12 13 13 14 15 15 15 15 15 15 15 16 15 16 16 16 16 16 17 17 17
12 12 12 12 12 12 13 13 13 13 13 13 13 12 11 12 12 11 11 11 12 13 13 14 14 15 15 15 15 16 16 16 16 17 17 17 18 17 17 17 17 17 18
12 12 12 12 13 13 13 13 13 13 13 14 14 14 13 12 11 12 12 13 13 14 14 15 16 16 16 16 17 17 17 17 18 18 18 18 18 18 19 19 19 18 18
12 13 14 14 14 14 13 13 13 13 14 14 14 14 13 13 13 14 14 14 15 16 16 16 17 17 17 17 18 18 18 18 18 19 19 19 19 19 20 19 19 19 18
13 14 14 15 14 14 14 14 15 15 15 15 15 14 15 15 16 16 16 15 15 16 17 17 17 18 18 19 19 18 18 18 19 19 20 20 20 20 20 19 20 20 19
14 14 15 15 15 15 15 15 16 16 16 17 17 17 17 18 18 18 18 17 17 17 18 18 19 19 19 19 19 19 19 19 19 19 20 21 21 20 20 19 20 20 19
15 15 16 16 16 16 17 17 17 18 18 18 19 19 19 20 20 20 20 19 19 19 19 19 20 20 20 19 20 20 20 20 20 20 20 20 21 20 20 20 20 20 20
17 17 17 17 18 18 18 19 19 20 19 20 20 20 21 22 21 21 21 21 21 21 21 21 21 21 20 20 20 20 21 21 21 21 20 20 21 21 21 20 21 21 21
19 19 19 19 19 20 20 21 21 21 20 20 21 22 22 23 22 23 22 22 23 22 22 22 22 21 21 21 21 22 22 22 21 21 22 21 21 22 22 22 21 21 21
21 21 21 21 22 22 22 22 22 21 21 22 23 23 23 23 23 23 23 23 23 23 23 22 22 22 22 22 22 22 22 22 22 22 22 22 22 22 22 22 21 21 21
22 22 23 23 23 23 23 23 23 23 23 24 24 24 24 24 23 23 23 23 23 24 24 24 23 23 23 23 24 23 23 23 22 23 23 22 22 22 22 22 21 21 21
23 24 24 25 24 24 24 24 25 25 25 25 25 25 25 24 24 25 24 23 23 23 24 25 25 24 23 24 24 24 24 23 23 23 24 23 23 22 22 22 22 21 21
24 25 25 25 26 26 26 27 27 27 27 26 26 26 26 26 26 26 25 24 24 24 25 25 25 25 25 24 24 25 25 24 24 25 24 24 24 23 23 23 23 22 22
25 26 27 27 28 28 29 29 29 29 28 28 28 27 27 27 27 26 25 25 25 25 25 25 25 25 25 25 25 26 25 25 25 25 25 25 24 24 24 24 24 23 22
27 28 28 29 29 30 30 30 30 29 29 29 29 29 29 28 27 26 26 26 25 25 25 25 26 26 26 26 26 26 26 26 26 25 25 25 24 24 24 25 25 25 24
Wind_Direction
26 22 24 17 10 8 3 355 347 337 351 356 353 358 356 343 351 343 331 311 301 291 283 272 256 265 266 260 256 250 246 253 258 249 253 252 251 252 254 248 248 246 246
10 3 8 360 354 353 351 347 342 322 315 331 337 338 325 301 300 325 318 323 315 295 280 266 267 271 271 268 260 258 255 254 255 259 265 266 262 260 253 249 250 250 249
2 358 0 359 352 345 347 344 335 323 312 304 305 306 306 303 299 299 297 294 292 289 279 279 276 270 271 271 264 264 261 259 258 263 268 270 269 265 259 249 249 250 250
6 2 359 355 353 353 352 347 338 324 307 298 300 298 293 292 294 291 288 287 287 285 283 280 274 277 274 268 264 268 267 265 266 266 266 271 269 268 266 254 250 250 252
9 3 353 347 343 343 338 334 327 319 306 304 301 298 293 288 288 289 284 282 283 280 277 279 272 269 264 265 265 270 272 269 268 268 269 269 269 271 269 263 256 255 256
0 350 343 339 336 333 328 324 318 313 307 302 300 296 291 290 284 281 280 278 281 276 272 276 273 267 265 267 267 268 272 274 270 270 269 268 269 271 269 265 265 261 258
352 347 342 341 335 330 327 322 315 310 305 298 294 291 286 287 283 278 276 276 276 276 277 274 271 271 271 269 270 271 272 273 270 269 270 270 268 271 269 266 266 264 262
347 348 344 338 331 329 329 328 322 315 306 298 294 291 286 287 287 282 277 278 276 274 272 267 267 268 271 271 271 273 271 273 271 268 268 270 270 269 271 270 269 266 264
342 342 339 336 328 328 326 321 316 311 311 306 300 294 286 285 285 283 280 275 274 274 273 270 270 271 269 269 271 272 274 276 272 270 267 270 270 270 270 271 270 268 265
337 336 334 332 331 327 321 315 310 307 306 305 301 296 286 288 286 282 279 275 276 276 275 274 277 272 272 271 272 272 276 274 273 273 271 270 271 271 271 273 273 271 268
332 331 329 330 326 324 318 310 306 306 303 302 301 299 290 287 289 287 282 281 281 280 278 277 274 272 273 274 275 277 276 276 275 271 271 271 272 272 272 274 272 271 268
328 327 324 326 325 320 319 316 312 311 308 307 302 297 291 285 290 287 285 283 283 281 280 279 278 273 271 273 275 278 276 274 273 272 271 272 273 273 273 275 273 269 266
325 322 321 319 317 311 311 311 310 309 308 308 305 298 294 286 287 284 283 283 283 282 281 281 281 276 273 274 276 278 277 274 272 272 272 273 274 273 273 278 277 271 267
320 319 316 314 310 307 306 307 309 306 305 306 302 297 296 291 287 284 284 284 283 282 282 282 280 277 276 275 275 276 276 276 275 273 273 273 274 273 274 277 276 273 269
313 313 313 312 310 308 308 309 308 306 305 302 300 297 295 294 292 291 287 286 286 285 284 284 282 280 277 278 277 275 276 278 276 274 274 275 274 274 274 277 277 273 269
311 311 312 311 309 307 306 306 304 304 304 303 300 297 295 292 291 293 291 288 286 287 285 286 283 281 280 279 281 279 277 278 278 274 271 273 274 275 275 275 275 273 269
309 310 311 311 309 306 304 302 301 301 299 297 297 296 293 291 291 290 292 290 289 287 288 286 284 283 282 281 282 282 281 278 279 277 272 272 271 270 272 273 273 271 269
307 308 308 308 308 306 302 300 299 297 296 295 294 293 291 291 290 289 289 288 288 287 287 285 285 283 281 280 281 281 282 280 280 277 274 274 270 269 270 272 273 270 268
302 305 305 305 305 304 302 299 298 296 294 294 293 292 290 290 289 288 287 287 285 286 287 285 284 283 281 282 282 282 282 282 280 277 273 274 271 268 269 271 272 271 269
300 300 302 302 301 301 300 298 297 296 296 295 293 292 291 290 289 287 285 285 285 284 284 283 283 285 283 283 283 282 281 281 278 276 276 272 271 270 270 270 271 270 270
298 298 300 300 299 298 297 297 296 295 295 295 294 292 291 289 289 287 285 284 284 284 283 283 283 283 283 283 282 282 281 280 280 279 277 274 273 271 270 270 271 271 269
296 296 297 297 296 297 296 295 294 294 295 296 295 293 292 291 289 287 285 285 284 283 283 282 282 283 282 282 280 281 280 278 279 279 278 275 273 273 273 273 273 273 271
291 292 294 296 295 295 295 295 295 294 293 294 294 294 292 291 290 288 286 286 284 284 282 281 282 281 281 281 280 279 280 279 278 277 277 275 273 273 271 272 273 273 272
290 292 293 293 294 294 294 295 295 295 294 292 292 292 292 292 291 289 287 283 283 282 281 280 282 282 283 282 280 279 279 279 278 277 276 274 273 271 270 270 271 270 269
291 290 291 293 293 292 292 292 294 294 292 290 290 291 293 293 292 291 287 286 284 282 281 282 283 283 281 280 279 278 278 278 277 276 274 273 272 269 269 269 269 269 268
291 290 291 293 292 292 292 292 293 293 292 290 289 290 290 291 290 288 287 285 284 281 281 281 282 284 282 280 278 278 278 278 278 276 274 273 271 270 268 267 267 267 266
Height
5897 5897 5896 5895 5894 5893 5892 5891 5891 5891 5891 5890 5890 5890 5890 5889 5889 5888 5888 5887 5887 5886 5885 5885 5885 5884 5884 5884 5884 5883 5883 5883 5882 5882 5882 5882 5882 5881 5882 5881 5882 5882 5882
5897 5897 5896 5895 5894 5893 5892 5892 5891 5891 5890 5890 5890 5889 5889 5889 5888 5887 5887 5886 5886 5885 5885 5884 5884 5883 5883 5883 5882 5882 5881 5881 5881 5881 5881 5880 5880 5879 5879 5879 5879 5879 5880
5897 5896 5895 5894 5893 5893 5892 5891 5891 5890 5890 5889 5889 5889 5888 5888 5887 5886 5886 5885 5885 5884 5883 5883 5883 5882 5881 5881 5881 5880 5880 5880 5879 5879 5879 5878 5878 5877 5877 5877 5877 5877 5877
5896 5895 5895 5894 5893 5892 5891 5891 5890 5889 5889 5889 5888 5888 5887 5886 5886 5885 5884 5884 5883 5883 5882 5882 5881 5881 5880 5879 5879 5879 5878 5878 5877 5877 5877 5876 5876 5875 5875 5874 5874 5874 5874
5896 5895 5894 5893 5892 5891 5891 5890 5889 5889 5888 5887 5887 5886 5885 5885 5884 5883 5883 5882 5881 5881 5881 5880 5879 5879 5878 5877 5877 5877 5876 5876 5875 5875 5874 5874 5873 5873 5872 5872 5872 5871 5871
5895 5894 5893 5892 5891 5890 5890 5889 5888 5887 5886 5885 5885 5884 5883 5883 5882 5881 5881 5880 5879 5879 5879 5878 5877 5876 5875 5875 5875 5874 5874 5873 5873 5872 5871 5871 5871 5870 5869 5869 5869 5868 5868
5894 5892 5891 5891 5890 5889 5888 5887 5886 5885 5884 5883 5883 5882 5881 5880 5879 5878 5878 5877 5877 5876 5876 5875 5875 5874 5873 5872 5872 5871 5871 5871 5870 5869 5868 5868 5867 5867 5866 5866 5865 5865 5864
5892 5891 5890 5889 5888 5887 5886 5885 5884 5883 5882 5881 5880 5879 5878 5878 5876 5875 5875 5874 5874 5873 5873 5872 5872 5871 5871 5870 5869 5868 5867 5867 5866 5866 5865 5864 5864 5863 5862 5862 5861 5860 5860
5891 5890 5889 5887 5886 5885 5884 5883 5882 5881 5880 5878 5877 5877 5876 5875 5873 5872 5871 5871 5871 5870 5869 5869 5868 5867 5867 5866 5865 5864 5863 5863 5862 5861 5861 5860 5860 5859 5858 5858 5857 5856 5855
5890 5888 5887 5885 5884 5883 5881 5880 5879 5878 5877 5875 5874 5873 5872 5871 5870 5869 5868 5868 5867 5866 5865 5865 5864 5864 5863 5862 5862 5861 5859 5858 5858 5857 5857 5856 5856 5855 5854 5853 5852 5851 5851
5888 5886 5884 5883 5881 5880 5879 5877 5876 5875 5873 5872 5871 5869 5868 5867 5867 5865 5864 5863 5863 5863 5862 5861 5860 5859 5859 5858 5857 5856 5855 5854 5853 5853 5853 5852 5852 5851 5850 5849 5847 5846 5845
5886 5884 5882 5880 5879 5877 5876 5874 5872 5870 5869 5868 5867 5866 5864 5864 5863 5862 5861 5859 5859 5858 5858 5857 5856 5855 5854 5853 5852 5852 5851 5850 5850 5849 5848 5847 5847 5846 5845 5844 5843 5841 5840
5883 5881 5880 5878 5876 5875 5873 5871 5869 5867 5866 5864 5863 5862 5861 5860 5859 5858 5857 5856 5855 5854 5853 5853 5852 5851 5850 5849 5848 5847 5846 5846 5845 5844 5844 5843 5842 5841 5840 5839 5838 5836 5835
5881 5879 5877 5875 5874 5872 5870 5868 5866 5864 5862 5860 5859 5858 5857 5857 5855 5855 5854 5852 5851 5850 5849 5848 5847 5846 5845 5845 5844 5843 5842 5841 5840 5839 5838 5838 5837 5836 5835 5834 5832 5831 5830
5878 5876 5874 5872 5870 5868 5867 5865 5863 5861 5859 5858 5856 5855 5854 5853 5852 5851 5850 5849 5848 5846 5845 5844 5842 5841 5840 5839 5839 5837 5836 5835 5834 5833 5833 5832 5831 5830 5829 5828 5827 5826 5824
5875 5873 5870 5868 5866 5865 5863 5861 5860 5858 5856 5854 5853 5852 5851 5849 5848 5847 5845 5844 5843 5842 5840 5839 5837 5836 5835 5834 5833 5832 5831 5830 5828 5827 5827 5826 5825 5824 5823 5822 5821 5820 5819
5870 5868 5867 5865 5863 5861 5859 5857 5856 5854 5852 5851 5849 5848 5846 5845 5843 5842 5840 5839 5837 5836 5835 5834 5832 5831 5830 5828 5827 5826 5824 5824 5823 5821 5820 5820 5819 5818 5817 5816 5815 5814 5814
5866 5864 5863 5861 5859 5857 5855 5853 5851 5849 5848 5846 5845 5843 5842 5840 5838 5837 5835 5834 5832 5830 5829 5828 5827 5825 5824 5822 5821 5820 5818 5817 5816 5815 5814 5813 5813 5812 5811 5811 5809 5809 5808
5862 5860 5858 5856 5854 5852 5850 5848 5846 5844 5843 5841 5839 5838 5836 5834 5833 5831 5829 5828 5826 5825 5823 5822 5821 5819 5818 5817 5816 5814 5813 5811 5810 5808 5807 5807 5806 5805 5805 5804 5804 5803 5802
5857 5855 5853 5851 5849 5847 5845 5843 5841 5839 5837 5835 5834 5832 5830 5828 5827 5825 5823 5822 5820 5819 5817 5816 5815 5813 5812 5811 5809 5808 5807 5805 5803 5802 5801 5800 5799 5799 5798 5798 5797 5796 5796
5852 5850 5848 5846 5844 5842 5840 5838 5836 5834 5832 5830 5828 5825 5823 5822 5820 5818 5816 5815 5813 5812 5811 5809 5808 5807 5806 5805 5803 5801 5800 5799 5797 5796 5795 5793 5792 5792 5791 5791 5790 5790 5790
5846 5844 5842 5840 5838 5836 5834 5832 5830 5828 5826 5823 5821 5819 5817 5815 5813 5811 5809 5808 5807 5805 5804 5802 5801 5800 5799 5797 5796 5794 5793 5792 5791 5789 5788 5787 5786 5785 5785 5784 5784 5783 5783
5840 5838 5836 5834 5832 5830 5827 5825 5823 5821 5819 5817 5815 5812 5810 5808 5806 5804 5802 5801 5800 5798 5797 5796 5794 5793 5791 5790 5788 5787 5786 5785 5784 5782 5781 5780 5779 5778 5778 5778 5777 5777 5776
5833 5831 5829 5827 5825 5823 5820 5818 5816 5814 5812 5810 5808 5806 5803 5801 5799 5797 5795 5794 5792 5791 5789 5788 5787 5785 5784 5782 5781 5780 5779 5778 5777 5775 5774 5773 5772 5771 5771 5771 5770 5770 5769
5825 5823 5821 5819 5817 5815 5812 5810 5808 5806 5804 5802 5800 5798 5796 5793 5791 5789 5788 5786 5784 5783 5781 5780 5779 5777 5776 5774 5773 5772 5771 5770 5769 5768 5766 5766 5765 5764 5764 5764 5763 5763 5762
5818 5816 5814 5811 5809 5806 5804 5802 5799 5797 5795 5793 5791 5789 5787 5785 5783 5781 5780 5778 5777 5775 5774 5773 5771 5770 5768 5766 5765 5764 5762 5761 5760 5760 5758 5758 5757 5756 5756 5756 5756 5755 5755